Location: Arborea
(39.7744°N, 8.5819°E)
Time: 23:56:16
(UTC+00:00)

Cosmos 1000 Rocket - Pass Details

Date: 10 October 2023
Orbit: 952 x 993 km, 82.9° (Epoch: 03 December)

Event Time Altitude Azimuth Distance (km) Brightness Sun altitude
Exits shadow 19:40:04 62° 348° (NNW) 1,114 4.8 -32.2°
Drops below altitude 10° 19:45:17 10° 5° (N) 2,761 7.0 -33.2°
Sets 19:47:49 0° 7° (N) 3,711 7.7 -33.6°
